Location: Beutels
(47.8767°N, 9.8584°E)
Time: 09:50:33
(UTC+00:00)

Okean 1 - Pass Details

Date: 19 May 2025
Orbit: 478 x 498 km, 82.5° (Epoch: 23 June)

Event Time Altitude Azimuth Distance (km) Brightness Sun altitude
Exits shadow 21:43:37 27° 225° (SW) 965 4.3 -19.0°
Maximum altitude 21:45:14 47° 283° (WNW) 662 3.9 -19.1°
Drops below altitude 10° 21:48:48 10° 358° (N) 1,684 6.8 -19.3°
Sets 21:50:58 0° 5° (N) 2,566 7.9 -19.5°
